Flag for U.S.A. Weather past 2 weeks in Dayton, Ohio, U.S.A.

Now
48 °F

Clear.


Feels Like: 48 °F
Forecast: 46 / 79 °F
Wind: 2 mph from North

Location: Dayton / Wright-Patterson Air Force Base

Current Time: Apr 18, 2015 at 6:05:38 AM

Latest Report: Apr 18, 2015 at 4:58 AM


Visibility: 10 mi

Pressure: 30.05 "Hg

Humidity: 87%

Dew point: 45 °F

Location of DaytonLocation

Historic Weather in Dayton — Graph

°F

Dayton temperature yesterday

Maximum temperature yesterday: 74 °F (at 5:58 PM)
Minimum temperature yesterday: 53 °F (at 7:58 AM)
Average temperature yesterday: 64 °F

Past Weeks' High & Low Weather Summary

 TemperatureHumidityPressure
High78 °F (Apr 13, 4:58 PM)100% (Apr 3, 4:58 AM)30.34 "Hg (Apr 3, 4:58 AM)
Low32 °F (Apr 4, 6:58 AM)20% (Apr 5, 2:58 PM)29.65 "Hg (Apr 10, 4:58 AM)
Average57 °F65%30.09 "Hg
* Reported Apr 3 4:58 AM — Apr 18 4:58 AM, Dayton, Weather by CustomWeather, © 2015

Note: Actual official high and low records may vary slightly from our data, if they occured in-between our weather recording intervals... More about our weather records

Advertising

Dayton weather history for previous 24 hours

 ConditionsComfort  
Time TempWeatherWind HumidityBarometerVisibility
4:58 AM
Sat, Apr 18
48 °FClear.2 mph87%30.05 "Hg10 mi
3:58 AM51 °FClear.2 mph80%30.05 "Hg10 mi
2:58 AM50 °FClear.2 mph81%30.04 "Hg10 mi
1:58 AM52 °FClear.No wind78%30.04 "Hg10 mi
12:58 AM53 °FClear.2 mph83%30.04 "Hg10 mi
11:58 PM
Fri, Apr 17
55 °FClear.2 mph66%30.05 "Hg10 mi
10:58 PM60 °FClear.No wind57%30.05 "Hg10 mi
9:58 PM60 °FClear.2 mph53%30.05 "Hg10 mi
8:58 PM68 °FSunny.5 mph41%30.03 "Hg10 mi
7:58 PM70 °FSunny.5 mph32%30.02 "Hg10 mi
6:58 PM72 °FSunny.5 mph27%30.02 "Hg10 mi
5:58 PM74 °FSunny.No wind27%30.02 "Hg10 mi
4:58 PM73 °FSunny.5 mph30%30.03 "Hg10 mi
3:58 PM73 °FSunny.6 mph30%30.04 "Hg10 mi
2:58 PM72 °FSunny.2 mph35%30.06 "Hg10 mi
1:58 PM71 °FSunny.6 mph41%30.08 "Hg10 mi
12:58 PM68 °FSunny.12 mph42%30.10 "Hg10 mi
11:58 AM67 °FScattered clouds.10 mph47%30.12 "Hg10 mi
10:58 AM63 °FSunny.8 mph61%30.13 "Hg10 mi
9:58 AM60 °FScattered clouds.1 mph79%30.12 "Hg8 mi
8:58 AM56 °FScattered clouds.6 mph94%30.11 "Hg8 mi
7:58 AM53 °FFog.6 mph100%30.10 "Hg1 mi
6:58 AM54 °FFog.No wind100%30.09 "Hg3 mi
Weather by CustomWeather, © 2015

See weather overviewHow to use our weather pages